Location: ??
(34.7252°N, 135.5457°E)
Time: 09:18:56
(UTC+00:00)

H-2A R/B - Pass Details

Date: 24 September 2020
Orbit: 577 x 655 km, 98.5° (Epoch: 23 October)

Event Time Altitude Azimuth Distance (km) Brightness Sun altitude
Rises 18:22:28 0° 148° (SSE) 2,891 5.6 -30.0°
Reaches altitude 10° 18:24:44 10° 140° (SE) 2,001 4.8 -29.6°
Maximum altitude 18:28:47 39° 72° (ENE) 959 3.4 -28.8°
Drops below altitude 10° 18:32:56 10° 4° (N) 2,051 5.0 -28.0°
Sets 18:35:17 0° 357° (N) 2,973 5.8 -27.6°
